This demonstration page uses our WeatherBlox Daily Observations layout. Learn more.

Left ArrowRight Arrow

Hourly Observations for July 4, 2022

Temp ( °F °C ) Dew Point ( °F °C ) Humidity (%) Winds ( mph kmh ) Pressure ( in mb ) Visibility ( mi km ) Precip ( " mm )
12:53 am 00:53 Clear 76 24.4 71 21.7 85 85 Calm 30.07 1018 10 16 0.00 0.00
1:53 am 01:53 Clear 74 23.3 71 21.7 91 91 Calm 30.07 1018 10 16 0.00 0.00
2:53 am 02:53 Clear 75 23.9 71 21.7 88 88 SSW 3 6 30.06 1018 10 16 0.00 0.00
3:15 am 03:15 Partly Cloudy 74 23.3 72 22.2 94 94 Calm 30.06 1018 10 16 0.00 0.00
3:24 am 03:24 Mostly Cloudy 74 23.3 73 22.8 97 97 Calm 30.06 1018 10 16 0.00 0.00
3:53 am 03:53 Cloudy 74 23.3 73 22.8 97 97 Calm 30.06 1018 7 11 0.00 0.00
4:33 am 04:33 Mostly Clear 74 23.3 72 22.2 94 94 Calm 30.06 1018 8 13 0.00 0.00
4:53 am 04:53 Mostly Clear with Mist and Fog 73 22.8 72 22.2 96 96 Calm 30.06 1018 4 6 0.00 0.00
5:14 am 05:14 Mostly Cloudy with Mist and Fog 74 23.3 73 22.8 97 97 Calm 30.06 1018 5 8 0.00 0.00
5:35 am 05:35 Cloudy with Mist and Fog 74 23.3 73 22.8 97 97 Calm 30.07 1018 2 3 0.00 0.00
5:40 am 05:40 Cloudy with Mist and Fog 74 23.3 73 22.8 97 97 Calm 30.07 1018 1 1 0.00 0.00
5:46 am 05:46 Mostly Cloudy with Fog 74 23.3 73 22.8 97 97 Calm 30.07 1018 0 0 0.00 0.00
5:53 am 05:53 Mostly Cloudy with Fog 74 23.3 73 22.8 97 97 Calm 30.07 1018 0 0 0.00 0.00
6:09 am 06:09 Mostly Cloudy with Fog 74 23.3 73 22.8 97 97 Calm 30.07 1018 1 1 0.00 0.00
6:15 am 06:15 Mostly Cloudy with Fog 73 22.8 73 22.8 100 100 Calm 30.07 1018 0 0 0.00 0.00
6:24 am 06:24 Mostly Cloudy with Mist and Fog 73 22.8 73 22.8 100 100 Calm 30.08 1019 1 1 0.00 0.00
6:29 am 06:29 Cloudy with Mist and Fog 73 22.8 73 22.8 100 100 Calm 30.08 1019 3 4 0.00 0.00
6:36 am 06:36 Cloudy 74 23.3 73 22.8 97 97 Calm 30.08 1019 8 13 0.00 0.00
6:53 am 06:53 Cloudy 74 23.3 73 22.8 97 97 undefined N/A 30.09 1019 10 16 0.00 0.00
7:17 am 07:17 Cloudy 75 23.9 74 23.3 96 96 Calm 30.10 1019 9 14 0.00 0.00
7:50 am 07:50 Cloudy 75 24 73 23 94 94 SSW 3 6 30.11 1019 8 13 0.00 0.00
7:53 am 07:53 Cloudy 75 23.9 74 23.3 96 96 Calm 30.11 1020 9 14 0.00 0.00
8:00 am 08:00 Cloudy 75 23.9 74 23.3 96 96 Calm 30.12 1020 9 14 0.00 0.00
8:53 am 08:53 Mostly Cloudy 78 25.6 74 23.3 87 87 Calm 30.13 1020 10 16 0.00 0.00
9:53 am 09:53 Mostly Cloudy 81 27.2 74 23.3 79 79 Calm 30.13 1020 10 16 0.00 0.00
10:53 am 10:53 Cloudy 83 28.3 74 23.3 74 74 VRB 3 6 30.14 1021 10 16 0.00 0.00
11:00 am 11:00 Mostly Cloudy 83 28.3 74 23.3 74 74 E 5 7 30.11 1020 10 16 0.00 0.00
11:07 am 11:07 Mostly Cloudy 83 28.3 74 23.3 74 74 VRB 5 7 30.11 1020 10 16 0.00 0.00
11:53 am 11:53 Partly Cloudy 85 29.4 74 23.3 70 70 VRB 7 11 30.13 1020 10 16 0.00 0.00
12:22 pm 12:22 Mostly Cloudy 87 30.6 73 22.8 63 63 VRB 5 7 30.11 1020 10 16 0.00 0.00
12:53 pm 12:53 Mostly Cloudy with Nearby Thunderstorms 88 31.1 72 22.2 59 59 ENE 6 9 30.11 1020 10 16 0.00 0.00
1:17 pm 13:17 Partly Cloudy 87 30.6 72 22.2 61 61 SE 5 7 30.09 1019 10 16 0.00 0.00
1:53 pm 13:53 Cloudy 85 29.4 73 22.8 68 68 NW 10 17 30.10 1019 10 16 0.00 0.00
2:53 pm 14:53 Mostly Sunny 88 31.1 73 22.8 61 61 NW 8 13 30.06 1018 10 16 0.00 0.00
3:53 pm 15:53 Sunny 89 31.7 72 22.2 57 57 Calm 30.05 1018 10 16 0.00 0.00
4:53 pm 16:53 Partly Cloudy 92 33.3 73 22.8 54 54 NW 5 7 30.03 1017 10 16 0.00 0.00
5:53 pm 17:53 Mostly Sunny 89 31.7 70 21.1 53 53 SE 6 9 30.02 1017 10 16 0.00 0.00
6:53 pm 18:53 Sunny 88 31.1 72 22.2 59 59 SW 5 7 30.02 1017 10 16 0.00 0.00
7:53 pm 19:53 Sunny 88 31.1 73 22.8 61 61 SW 3 6 30.02 1017 10 16 0.00 0.00
8:19 pm 20:19 Partly Cloudy with Nearby Thunderstorms 88 31.1 73 22.8 61 61 VRB 3 6 30.01 1016 10 16 0.00 0.00
8:34 pm 20:34 Partly Cloudy 87 30.6 74 23.3 65 65 NW 3 6 30.02 1016 10 16 0.00 0.00
8:53 pm 20:53 Clear with Nearby Thunderstorms 86 30 74 23.3 67 67 Calm 30.04 1017 10 16 0.00 0.00
9:32 pm 21:32 Mostly Cloudy with Thunderstorms 83 28.3 72 22.2 70 70 E 15 24 30.04 1017 10 16 0.00 0.00
9:45 pm 21:45 Cloudy with Thunderstorms 81 27.2 71 21.7 72 72 E 10 17 30.06 1018 10 16 0.00 0.00
9:53 pm 21:53 Cloudy with Thunderstorms 79 26.1 71 21.7 77 77 E 10 17 30.07 1018 10 16 0.00 0.00
10:21 pm 22:21 Cloudy with Nearby Thunderstorms 76 24.4 74 23.3 94 94 NE 9 15 30.08 1019 7 11 0.02 0.51
10:53 pm 22:53 Mostly Clear with Nearby Thunderstorms 74 23.3 71 21.7 91 91 NE 5 7 30.11 1020 10 16 0.03 0.76
11:20 pm 23:20 Mostly Clear 75 23.9 72 22.2 90 90 NE 3 6 30.11 1020 10 16 0.00 0.00
11:53 pm 23:53 Mostly Clear 75 23.9 71 21.7 88 88 Calm 30.09 1019 10 16 0.00 0.00

Powered by AerisWeather